TimePDT,TemperatureF,Dew PointF,Humidity,Sea Level PressureIn,VisibilityMPH,Wind Direction,Wind SpeedMPH,Gust SpeedMPH,PrecipitationIn,Events,Conditions,WindDirDegrees,DateUTC
12:53 AM,55.9,55.0,97,30.01,10.0,NW,3.5,-,N/A,,Clear,310,2013-06-14 07:53:00
1:53 AM,57.0,55.9,96,29.99,10.0,North,3.5,-,N/A,,Clear,10,2013-06-14 08:53:00
2:53 AM,55.0,55.0,100,29.99,10.0,NNE,4.6,-,N/A,,Clear,30,2013-06-14 09:53:00
3:53 AM,53.1,51.1,93,29.96,10.0,Calm,Calm,-,N/A,,Clear,0,2013-06-14 10:53:00
4:53 AM,53.1,53.1,100,29.96,10.0,Calm,Calm,-,N/A,,Scattered Clouds,0,2013-06-14 11:53:00
5:53 AM,53.1,53.1,100,29.96,10.0,NE,3.5,-,N/A,,Mostly Cloudy,50,2013-06-14 12:53:00
6:53 AM,57.0,57.0,100,29.96,10.0,Variable,6.9,-,N/A,,Scattered Clouds,0,2013-06-14 13:53:00
7:53 AM,63.0,57.0,81,29.96,10.0,South,3.5,-,N/A,,Scattered Clouds,170,2013-06-14 14:53:00
8:53 AM,64.0,57.9,80,29.96,10.0,SSW,4.6,-,N/A,,Partly Cloudy,210,2013-06-14 15:53:00
9:53 AM,66.0,59.0,78,29.96,10.0,SW,4.6,-,N/A,,Partly Cloudy,220,2013-06-14 16:53:00
10:53 AM,72.0,51.1,48,29.95,10.0,SW,4.6,-,N/A,,Partly Cloudy,230,2013-06-14 17:53:00
11:53 AM,75.0,51.1,43,29.94,10.0,WSW,4.6,-,N/A,,Partly Cloudy,250,2013-06-14 18:53:00
12:53 PM,78.1,48.9,36,29.93,10.0,West,8.1,-,N/A,,Partly Cloudy,270,2013-06-14 19:53:00
1:53 PM,77.0,51.1,40,29.92,10.0,WNW,13.8,-,N/A,,Partly Cloudy,290,2013-06-14 20:53:00
2:53 PM,75.9,52.0,43,29.90,10.0,WNW,12.7,-,N/A,,Partly Cloudy,290,2013-06-14 21:53:00
3:53 PM,71.1,52.0,51,29.90,10.0,NW,15.0,-,N/A,,Scattered Clouds,310,2013-06-14 22:53:00
4:53 PM,71.1,51.1,49,29.88,10.0,WNW,13.8,-,N/A,,Scattered Clouds,300,2013-06-14 23:53:00
5:53 PM,70.0,50.0,49,29.87,10.0,West,13.8,-,N/A,,Scattered Clouds,280,2013-06-15 00:53:00
6:53 PM,66.0,53.1,63,29.87,10.0,West,17.3,-,N/A,,Scattered Clouds,280,2013-06-15 01:53:00
7:53 PM,62.1,54.0,75,29.87,10.0,WNW,13.8,-,N/A,,Partly Cloudy,290,2013-06-15 02:53:00
8:53 PM,59.0,55.0,87,29.88,10.0,Variable,5.8,26.5,N/A,,Partly Cloudy,0,2013-06-15 03:53:00
9:17 PM,59.0,55.4,88,29.88,10.0,WNW,15.0,-,N/A,,Partly Cloudy,290,2013-06-15 04:17:00
9:53 PM,57.9,55.0,90,29.89,10.0,WNW,10.4,-,N/A,,Partly Cloudy,290,2013-06-15 04:53:00
10:53 PM,57.9,55.9,93,29.89,10.0,Calm,Calm,-,N/A,,Partly Cloudy,0,2013-06-15 05:53:00
11:53 PM,54.0,53.1,97,29.88,10.0,North,3.5,-,N/A,,Partly Cloudy,350,2013-06-15 06:53:00